User: anonymous   Login
Location: Unspecified
(0.0000°N, 0.0000°E)
Time: 05:17:25
(UTC+00:00)
Language:

CLOUDSAT - Orbit

View from above orbital plane
View from above orbital plane
View from above satellite
View from above satellite

Ground track
Ground track

The orbit data is extracted from the following two-line orbital elements,

1 29107U 06016A   15179.84489940  .00000188  00000-0  51782-4 0  9995
2 29107 098.1937 123.2676 0001917 092.6166 267.5252 14.57122979487671
Epoch (UTC): 28 June 2015 20:16:39
Eccentricity: 0.0001917
inclination: 98.1937°
perigee height: 701 km
apogee height: 704 km
right ascension of ascending node: 123.2676°
argument of perigee: 92.6166°
revolutions per day: 14.57122979
mean anomaly at epoch: 267.5252°
orbit number at epoch: 48767

The dashed part of the orbit path shows where the satellite is in the earth's shadow,  

DLR